This is the latest recevied weather packets stored in our database for station/object W4NDF-13. If no packets are shown the sender has not sent any weather packets the latest 1 day(s).
| Time | Temp. | Humidity | Pressure | Rain* | Wind** | Luminosity | Snow |
|---|---|---|---|---|---|---|---|
| 1836274657 | 26.67° C | 81% | 1017.5 hPa | 0 mm | 0 m/s | 0 W/m² | - |
| 1836274509 | 26.11° C | 82% | 1017.6 hPa | 0 mm | 0 m/s | 0 W/m² | - |
| 1836274354 | 26.67° C | 81% | 1017.5 hPa | 0 mm | 0 m/s | 0 W/m² | - |
| 1836274208 | 26.67° C | 81% | 1017.4 hPa | 0 mm | 0 m/s | 0 W/m² | - |
| 1836274053 | 26.67° C | 81% | 1017.1 hPa | 0 mm | 0 m/s | 0 W/m² | - |
| 1778040192 | 23.33° C | 91% | 1012.8 hPa | 0 mm | 2.24 m/s, 177° | 0 W/m² | - |
| 1778039887 | 23.33° C | 91% | 1013 hPa | 0 mm | 1.34 m/s, 158° | 0 W/m² | - |
| 1778039585 | 23.33° C | 91% | 1013.1 hPa | 0 mm | 1.79 m/s, 177° | 0 W/m² | - |
| 1778039282 | 23.33° C | 90% | 1013.2 hPa | 0 mm | 1.79 m/s, 221° | 0 W/m² | - |
| 1778038979 | 23.33° C | 90% | 1013.2 hPa | 0 mm | 2.24 m/s, 165° | 0 W/m² | - |
| 1778038676 | 23.33° C | 90% | 1013.3 hPa | 0 mm | 1.34 m/s, 179° | 0 W/m² | - |
| 1778038373 | 23.33° C | 90% | 1013 hPa | 0 mm | 1.34 m/s, 135° | 0 W/m² | - |
| 1778038070 | 23.33° C | 90% | 1013.1 hPa | 0 mm | 1.79 m/s, 229° | 0 W/m² | - |
| 1778037767 | 23.33° C | 90% | 1012.9 hPa | 0 mm | 1.34 m/s, 126° | 0 W/m² | - |
| 1778037463 | 23.33° C | 89% | 1012.8 hPa | 0 mm | 1.79 m/s, 179° | 0 W/m² | - |
| 1778037161 | 23.33° C | 89% | 1013.1 hPa | 0 mm | 1.34 m/s, 203° | 0 W/m² | - |
| 1778036859 | 23.33° C | 89% | 1013 hPa | 0 mm | 1.79 m/s, 170° | 0 W/m² | - |
| 1778036556 | 23.89° C | 89% | 1013.2 hPa | 0 mm | 1.79 m/s, 167° | 0 W/m² | - |
| 1778036253 | 23.89° C | 88% | 1013.1 hPa | 0 mm | 1.34 m/s, 216° | 0 W/m² | - |
| 1778035950 | 23.89° C | 88% | 1012.9 hPa | 0 mm | 1.79 m/s, 144° | 0 W/m² | - |
| 1778035646 | 23.89° C | 88% | 1012.9 hPa | 0 mm | 3.58 m/s, 130° | 0 W/m² | - |
| 1778035343 | 23.89° C | 88% | 1012.8 hPa | 0 mm | 2.24 m/s, 134° | 0 W/m² | - |
| 1778035039 | 23.89° C | 87% | 1012.6 hPa | 0 mm | 0.89 m/s, 192° | 0 W/m² | - |
| 1778034736 | 23.89° C | 87% | 1012.7 hPa | 0 mm | 1.79 m/s, 147° | 0 W/m² | - |
| 1778034433 | 23.89° C | 86% | 1012.7 hPa | 0 mm | 1.34 m/s, 150° | 0 W/m² | - |
* Rain latest hour (hover to see other rain measurements)
** Current wind speed in m/s (hover to see current wind gust speed)